Regional Weather Roundup
Issued by NWS Kansas City/Pleasant Hill, MO

Home | Current Version | Previous Version | Text Only | Print | Product List | Glossary On
Versions: 1 2 3 4 5 6 7 8 9 10 11 12 13 14 15 16 17 18 19 20 21 22 23 24 25 26 27 28 29 30 31 32 33 34 35 36 37 38 39 40 41 42 43 44 45 46 47 48 49 50
092
ASUS43 KEAX 220910
RWREAX

WEATHER ROUNDUP FOR EASTERN KANSAS AND NORTHWEST MISSOURI
NATIONAL WEATHER SERVICE KANSAS CITY/PLEASANT HILL MO
300 AM CST WED NOV 22 2017

KSZ040-057-103>105-MOZ028-029-037-043-221000-
...KANSAS CITY METROPOLITAN AREA...

CITY           SKY/WX    TMP DP  RH WIND       PRES   REMARKS
K.C. INTL      CLOUDY    21  13  71 N6        30.41S WCI  13
K.C. DOWNTOWN  CLOUDY    26  13  57 NW7       30.44R WCI  18
LEES SUMMIT    PTCLDY    25  14  63 N9        30.42R WCI  15
OLATHE - IXD   CLOUDY    21  14  74 NW7       30.42S WCI  12
OLATHE - OJC   CLOUDY    23  15  71 N7        30.41R WCI  15
LAWRENCE       CLOUDY    20  14  77 NW6       30.44S WCI  12

$$

MOZ001>008-011>017-020>025-030>033-038>040-044>046-053-054-221000-
...NORTHERN AND CENTRAL MISSOURI...

CITY           SKY/WX    TMP DP  RH WIND       PRES   REMARKS
ST. JOSEPH     PTCLDY    21  11  65 N3        30.43S
MOSBY          MOSUNNY   23  14  68 CALM      30.43F
WARRENSBURG    CLOUDY    25  18  74 NW7       30.42R WCI  17
WHITEMAN AFB   CLEAR     24  15  67 N10       30.37R WCI  14
CLINTON        CLOUDY    23  18  80 MISG      30.42R
SEDALIA        PTCLDY    26  20  77 NW14      30.41R WCI  14
WARSAW         NOT AVBL
CHILLICOTHE      N/A     23  14  68 CALM      30.42F
KIRKSVILLE     CLOUDY    21  15  78 NW3       30.40R

$$

MOZ041-047>049-056>058-063>065-088>090-097-221000-
...EASTERN AND SOUTHERN MISSOURI...

CITY           SKY/WX    TMP DP  RH WIND       PRES   REMARKS
ST. LOUIS INTL CLOUDY    27  20  75 NW7       30.35R WCI  19
SPIRIT OF STL  CLOUDY    27  19  72 NW7       30.36R WCI  19
COLUMBIA       CLOUDY    25  17  72 N10       30.37R WCI  15
JEFFERSON CITY CLOUDY    28  17  63 NW7       30.39R WCI  21
ROLLA          PTCLDY    26  18  71 N9        30.34R WCI  17
OSAGE BEACH    PTCLDY    27  18  69 N6        30.39R WCI  20
SPRINGFIELD    PTCLDY    26  19  74 N8        30.35R WCI  18
JOPLIN         CLOUDY    24  19  81 N7        30.41R WCI  16
WEST PLAINS    CLOUDY    29  18  63 VRB7      30.30R WCI  22

$$

IAZ060-094-KSZ022-034>040-054-083-096-NEZ052-066-093-221000-
...KANSAS...SOUTHEAST NEBRASKA AND IOWA...

CITY           SKY/WX    TMP DP  RH WIND       PRES   REMARKS
TOPEKA         CLOUDY    19  13  77 NW3       30.44S
MANHATTAN      CLOUDY    20  13  74 W8        30.45S WCI  10
EMPORIA        CLOUDY    20  12  71 N7        30.42R WCI  11
CHANUTE        CLOUDY    24  15  68 NW5       30.42R WCI  18
WICHITA        CLOUDY    26  15  63 N8        30.42R WCI  18
OMAHA          CLOUDY    19  11  70 CALM      30.43S
LINCOLN        CLOUDY    15  10  80 MISG      30.43F
FALLS CITY     CLOUDY    16  11  80 NW5       30.43R WCI   9
LAMONI         CLOUDY    17  11  77 N7        30.38S WCI   8
DES MOINES     CLOUDY    20  11  68 NW8       30.40S WCI  10

$$





USA.gov is the U.S. government's official web portal to all federal, state and local government web resources and services.